sat.trackr.live / text

‹ back to catalog

STARLINK-11453 [DTC]

NORAD 62411 · 2024-249C

PAYLOAD ACTIVE UNKNOWN

§ Identity

Operator
Country
US
Launch date
2024-12-23
Launch site
AFETR
Launch vehicle
Mass (kg)
RCS (m²)

Purposes: comms

External: N2YO · Heavens-Above · Gunter

§ Orbital elements

Epoch: 2026-09-21T17:33:21.758976Z

Period
91.67 min
Inclination
43.0006°
Eccentricity
0.0002904
Mean motion
15.70916346 rev/d
Perigee alt
354.3 km
Apogee alt
358.2 km
Semi-major
6,734.4 km
B*
1.4320e-3
RAAN
65.9162°
Arg perigee
267.5479°
Mean anomaly
92.5056°
Rev number
10,031

§ Raw data

STARLINK-11453 [DTC]1 62411U 24249C   26264.73150184  .00188128  00000+0  14320-2 0  99932 62411  43.0006  65.9162 0002904 267.5479  92.5056 15.70916346100317

JSON: /api/v1/satellites/62411 · /tle

For live sub-satellite position, see the globe view (requires WebGL).

§ Visibility from observer

Set your observer location to see the next 7 days of passes ≥ 10°. The values pass through the URL so the page stays shareable.

No JS? Fill the form by hand. The geolocation button needs JavaScript.